{"data":{"norad_id":62992,"epoch":"2026-05-25T00:29:53.905920Z","epoch_age_seconds":76481,"freshness":"FRESH","line1":"1 62992U 25031M   26145.02076280  .00159667  00000+0  12220-2 0  9994","line2":"2 62992  43.0014 261.6845 0001674  37.4107 322.6877 15.70879169 74733","mean_motion":15.70879169,"eccentricity":0.0001674,"inclination_deg":43.0014,"raan_deg":261.6845,"arg_perigee_deg":37.4107,"mean_anomaly_deg":322.6877,"bstar":0.001222,"rev_number":7473,"period_min":91.668412721819,"perigee_km":355.25575289552,"apogee_km":357.51047022887,"semimajor_km":6734.5201115622,"source":"CELESTRAK","updated_at":"2026-05-25T13:38:19.832380Z"}}